Location: Unspecified
(0.0000°N, 0.0000°E)
Time: 03:49:26
(UTC+02:00)

GPS 2-12 Rocket1 - Visible Passes

Search period start: 02 September 2014 00:00
Search period end: 12 September 2014 00:00
Orbit: 592 x 661 km, 20.0° (Epoch: 01 September)

Date Brightness Start Highest point End Pass type
(mag) Time Alt. Az. Time Alt. Az. Time Alt. Az.
02 Sep 5.3 21:40:23 10° SSW 21:42:10 16° S 21:42:10 16° S visible
03 Sep 5.3 21:57:55 10° SW 21:59:28 18° SSW 21:59:28 18° SSW visible
04 Sep 5.0 20:33:17 10° SSW 20:36:30 17° SSE 20:39:39 10° ESE visible
04 Sep 5.6 22:15:44 10° SW 22:16:48 16° SW 22:16:48 16° SW visible
05 Sep 4.4 20:50:47 10° SW 20:54:54 27° SSE 20:57:01 20° ESE visible
05 Sep 6.1 22:33:49 10° WSW 22:34:11 12° WSW 22:34:11 12° WSW visible
06 Sep 5.6 07:18:35 10° N 07:20:08 12° NNE 07:21:40 10° NE visible
06 Sep 3.6 21:08:34 10° SW 21:13:12 45° SSE 21:14:25 37° ESE visible
07 Sep 3.0 21:26:36 10° WSW 21:31:27 80° SSE 21:31:51 73° ESE visible
08 Sep 5.6 06:11:48 10° N 06:12:58 11° NNE 06:14:21 10° NNE visible
08 Sep 3.7 21:44:56 10° W 21:49:17 56° NW 21:49:17 56° NW visible
09 Sep 5.3 06:29:10 13° NNW 06:31:27 17° NNE 06:34:27 10° ENE visible
09 Sep 3.2 20:19:26 10° WSW 20:24:13 74° SSE 20:29:04 10° ENE visible
09 Sep 4.9 22:03:36 10° W 22:06:42 29° NW 22:06:42 29° NW visible
10 Sep 4.6 06:46:34 13° NW 06:49:49 28° NNE 06:53:42 10° E visible
10 Sep 3.5 20:37:43 10° WSW 20:42:28 63° NNW 20:46:57 12° ENE visible
10 Sep 5.8 22:22:40 10° WNW 22:24:06 16° NW 22:24:06 16° NW visible
11 Sep 6.0 05:26:49 11° NE 05:26:49 11° NE 05:27:14 10° ENE visible
11 Sep 3.7 07:03:59 12° NW 07:08:07 49° NNE 07:12:28 10° E visible
11 Sep 4.4 20:56:20 10° W 21:00:44 36° NNW 21:04:19 15° NE visible
